Murray, KY

8:07 AM CST on December 08, 2019 (GMT -0600)
Kyle-Oakley

Weather History for KCEY - October, 2019

Change the Weather History Date:

Monday, October 21, 2019

  Actual Average (KPAH) Record (KPAH)
Temperature  
Mean Temperature 62 °F -  
Max Temperature 68 °F 69 °F 88 °F (1953)
Min Temperature 57 °F 45 °F 26 °F (1952)
Degree Days  
Heating Degree Days 2    
Growing Degree Days 12 (Base 50)    
Moisture  
Dew Point 62 °F    
Average Humidity 98    
Maximum Humidity 100    
Minimum Humidity 83    
Precipitation  
Precipitation 0.17 in - - ()
Sea Level Pressure  
Sea Level Pressure 29.75 in    
Wind  
Wind Speed 10 mph (South)    
Max Wind Speed 23 mph    
Max Gust Speed 38 mph    
Visibility 10 miles    
Events      
Averages and records for this station are not official NWS values.
T = Trace of Precipitation, MM = Missing Value Source: NWS Daily Summary

Daily Weather History Graph

Daily Weather History Graph

Search for Another Location

Airport or City:

Astronomy

Oct. 21, 2019 Rise Set
Actual Time 7:06 AM CDT 6:09 PM CDT
Civil Twilight 6:39 AM CDT 6:35 PM CDT
Nautical Twilight 6:09 AM CDT 7:05 PM CDT
Astronomical Twilight 5:39 AM CDT 7:35 PM CDT
Moon No Moon Rise 2:18 PM CDT (10/21)
Length of Visible Light 11h 55m
Length of Day
11h 03m
Waning Gibbous, 48% of the Moon is Illuminated
Oct 21
Waning Gibbous
Oct 27
New
Nov 4
First Quarter
Nov 12
Full
Nov 19
Last Quarter

Hourly Weather History & Observations

Time (CDT) Temp. Dew Point Humidity Pressure Visibility Wind Dir Wind Speed Gust Speed Precip Events Conditions
12:35 AM 64.4 °F 60.8 °F 88% 29.80 in 10.0 mi SE 9.2 mph - N/A   Mostly Cloudy
12:55 AM 64.4 °F 60.8 °F 88% 29.78 in 10.0 mi SSE 6.9 mph 18.4 mph N/A   Mostly Cloudy
1:15 AM 64.4 °F 59.0 °F 83% 29.78 in 10.0 mi SE 9.2 mph 16.1 mph N/A   Mostly Cloudy
1:35 AM 64.4 °F 59.0 °F 83% 29.78 in 10.0 mi SSE 10.4 mph 19.6 mph N/A   Mostly Cloudy
1:55 AM 64.4 °F 59.0 °F 83% 29.78 in 10.0 mi SSE 9.2 mph 16.1 mph N/A   Mostly Cloudy
2:15 AM 64.4 °F 59.0 °F 83% 29.77 in 10.0 mi SSE 10.4 mph 17.3 mph N/A   Overcast
2:35 AM 64.4 °F 59.0 °F 83% 29.75 in 10.0 mi SE 5.8 mph - N/A   Overcast
2:55 AM 64.4 °F 60.8 °F 88% 29.75 in 8.0 mi SSE 9.2 mph - 0.01 in   Overcast
3:15 AM 62.6 °F 62.6 °F 100% 29.74 in 10.0 mi SSE 9.2 mph - 0.01 in   Overcast
3:35 AM 62.6 °F 62.6 °F 100% 29.73 in 10.0 mi SE 4.6 mph - 0.01 in   Overcast
3:55 AM 62.6 °F 62.6 °F 100% 29.72 in 10.0 mi SE 4.6 mph - 0.01 in   Overcast
4:15 AM 64.4 °F 62.6 °F 94% 29.70 in 10.0 mi SE 9.2 mph 16.1 mph N/A   Mostly Cloudy
4:35 AM 64.4 °F 62.6 °F 94% 29.70 in 10.0 mi SSE 15.0 mph 27.6 mph N/A   Mostly Cloudy
4:55 AM 66.2 °F 64.4 °F 94% 29.69 in 10.0 mi SSE 11.5 mph 20.7 mph N/A   Overcast
5:35 AM 66.2 °F 64.4 °F 94% 29.69 in 10.0 mi SSE 13.8 mph 27.6 mph N/A   Overcast
5:55 AM 66.2 °F 64.4 °F 94% 29.70 in 10.0 mi SSE 13.8 mph 27.6 mph N/A   Overcast
6:15 AM 66.2 °F 66.2 °F 100% 29.69 in 10.0 mi SSE 15.0 mph 24.2 mph N/A   Overcast
6:35 AM 66.2 °F 66.2 °F 100% 29.69 in 10.0 mi SSE 11.5 mph 23.0 mph N/A   Overcast
6:55 AM 66.2 °F 66.2 °F 100% 29.68 in 10.0 mi SSE 12.7 mph 20.7 mph N/A   Overcast
7:15 AM 68.0 °F 66.2 °F 94% 29.69 in 10.0 mi South 12.7 mph 20.7 mph N/A   Overcast
7:35 AM 66.2 °F 66.2 °F 100% 29.70 in 5.0 mi SSE 10.4 mph 23.0 mph N/A   Overcast
7:55 AM 66.2 °F 66.2 °F 100% 29.70 in 10.0 mi SSE 11.5 mph 21.9 mph 0.01 in   Overcast
8:15 AM 66.2 °F 66.2 °F 100% 29.70 in 10.0 mi SSE 10.4 mph 24.2 mph N/A   Overcast
8:35 AM 66.2 °F 66.2 °F 100% 29.73 in 2.0 mi SSW 20.7 mph 34.5 mph 0.07 in   Overcast
8:55 AM 64.4 °F 64.4 °F 100% 29.74 in 4.0 mi SSW 13.8 mph 38.0 mph 0.11 in   Scattered Clouds
9:15 AM 64.4 °F 64.4 °F 100% 29.73 in 10.0 mi South 4.6 mph - N/A   Scattered Clouds
9:35 AM 64.4 °F 64.4 °F 100% 29.71 in 10.0 mi SSE 8.1 mph - N/A   Partly Cloudy
9:55 AM 64.4 °F 64.4 °F 100% 29.71 in 10.0 mi SSE 8.1 mph - N/A   Partly Cloudy
10:15 AM 64.4 °F 64.4 °F 100% 29.73 in 10.0 mi South 9.2 mph 19.6 mph N/A   Partly Cloudy
10:35 AM 64.4 °F 64.4 °F 100% 29.76 in 10.0 mi South 12.7 mph 18.4 mph N/A   Scattered Clouds
10:55 AM 64.4 °F 64.4 °F 100% 29.74 in 10.0 mi SSE 13.8 mph 20.7 mph N/A   Scattered Clouds
11:15 AM 64.4 °F 64.4 °F 100% 29.74 in 10.0 mi SSE 10.4 mph 17.3 mph N/A   Clear
11:35 AM 64.4 °F 64.4 °F 100% 29.74 in 10.0 mi SSE 15.0 mph 23.0 mph N/A   Partly Cloudy
11:55 AM 64.4 °F 64.4 °F 100% 29.72 in 10.0 mi SE 16.1 mph 27.6 mph N/A   Partly Cloudy
12:15 PM 64.4 °F 64.4 °F 100% 29.72 in 10.0 mi SSE 23.0 mph 32.2 mph N/A   Partly Cloudy
12:35 PM 64.4 °F 64.4 °F 100% 29.76 in 10.0 mi SSE 13.8 mph 23.0 mph N/A   Partly Cloudy
12:55 PM 62.6 °F 62.6 °F 100% 29.73 in 9.0 mi SSE 16.1 mph 20.7 mph 0.01 in   Clear
1:15 PM 62.6 °F 62.6 °F 100% 29.70 in 10.0 mi SSE 11.5 mph 24.2 mph 0.01 in   Clear
1:35 PM 62.6 °F 62.6 °F 100% 29.68 in 10.0 mi SSE 11.5 mph 27.6 mph 0.01 in   Partly Cloudy
1:55 PM 62.6 °F 62.6 °F 100% 29.70 in 10.0 mi SSE 9.2 mph 21.9 mph 0.02 in   Partly Cloudy
2:15 PM 64.4 °F 64.4 °F 100% 29.72 in 10.0 mi SSW 8.1 mph 18.4 mph N/A   Scattered Clouds
2:35 PM 64.4 °F 64.4 °F 100% 29.73 in 10.0 mi South 6.9 mph - N/A   Mostly Cloudy
2:55 PM 64.4 °F 64.4 °F 100% 29.73 in 10.0 mi SSW 12.7 mph 18.4 mph N/A   Mostly Cloudy
3:15 PM 64.4 °F 64.4 °F 100% 29.73 in 10.0 mi South 10.4 mph 18.4 mph N/A   Overcast
3:35 PM 64.4 °F 64.4 °F 100% 29.74 in 10.0 mi South 11.5 mph 20.7 mph N/A   Overcast
3:55 PM 62.6 °F 62.6 °F 100% 29.74 in 10.0 mi South 11.5 mph 20.7 mph N/A   Overcast
4:15 PM 64.4 °F 64.4 °F 100% 29.74 in 10.0 mi South 13.8 mph 20.7 mph N/A   Overcast
4:35 PM 64.4 °F 64.4 °F 100% 29.74 in 10.0 mi SSW 12.7 mph 18.4 mph N/A   Overcast
4:55 PM 64.4 °F 62.6 °F 94% 29.74 in 10.0 mi South 13.8 mph 19.6 mph N/A   Overcast
5:15 PM 62.6 °F 62.6 °F 100% 29.74 in 10.0 mi SSW 13.8 mph 18.4 mph N/A   Mostly Cloudy
5:35 PM 62.6 °F 62.6 °F 100% 29.75 in 10.0 mi South 9.2 mph - N/A   Mostly Cloudy
5:55 PM 62.6 °F 62.6 °F 100% 29.75 in 10.0 mi South 10.4 mph 18.4 mph N/A   Overcast
6:15 PM 62.6 °F 62.6 °F 100% 29.77 in 10.0 mi SSW 9.2 mph 21.9 mph N/A   Overcast
6:35 PM 62.6 °F 62.6 °F 100% 29.77 in 10.0 mi South 10.4 mph 18.4 mph N/A   Mostly Cloudy
6:55 PM 62.6 °F 62.6 °F 100% 29.77 in 10.0 mi South 8.1 mph 18.4 mph N/A   Scattered Clouds
7:15 PM 60.8 °F 60.8 °F 100% 29.78 in 10.0 mi South 8.1 mph - N/A   Partly Cloudy
7:35 PM 60.8 °F 60.8 °F 100% 29.78 in 10.0 mi South 8.1 mph - N/A   Partly Cloudy
7:55 PM 59.0 °F 59.0 °F 100% 29.78 in 10.0 mi South 8.1 mph - N/A   Unknown
8:15 PM 59.0 °F 59.0 °F 100% 29.79 in 10.0 mi South 6.9 mph - N/A   Unknown
8:35 PM 59.0 °F 59.0 °F 100% 29.80 in 10.0 mi South 9.2 mph 16.1 mph N/A   Scattered Clouds
8:55 PM 59.0 °F 59.0 °F 100% 29.81 in 10.0 mi SSW 9.2 mph - N/A   Mostly Cloudy
9:15 PM 59.0 °F 59.0 °F 100% 29.82 in 10.0 mi South 8.1 mph - N/A   Overcast
9:35 PM 59.0 °F 59.0 °F 100% 29.83 in 10.0 mi South 10.4 mph 18.4 mph N/A   Mostly Cloudy
9:55 PM 59.0 °F 59.0 °F 100% 29.84 in 10.0 mi South 10.4 mph - N/A   Partly Cloudy
10:15 PM 59.0 °F 59.0 °F 100% 29.86 in 10.0 mi SSW 9.2 mph - N/A   Unknown
10:35 PM 59.0 °F 59.0 °F 100% 29.86 in 10.0 mi SSW 10.4 mph 19.6 mph N/A   Clear
11:15 PM 57.2 °F 57.2 °F 100% 29.88 in 10.0 mi West 9.2 mph - N/A   Partly Cloudy
11:35 PM 57.2 °F 57.2 °F 100% 29.87 in 10.0 mi SW 11.5 mph - N/A   Partly Cloudy
11:55 PM 57.2 °F 57.2 °F 100% 29.87 in 10.0 mi WSW 10.4 mph - N/A   Clear